The Legends Meet 2014 vs The Legends Meet 2012

Aggregate Data Points
Difference This Meet That Meet
Overall Athletes +45 857 812
Overall Average -7.49 21:53.65 22:01.15
1st-10th Place -17.44 16:18.27 16:35.71
1st-25th Place -23.36 16:35.64 16:59.00
1st-50th Place -21.07 16:54.69 17:15.76
1st-100th Place -23.48 17:17.71 17:41.18
Common Athletes -- -- 169
Ran Faster 70 120 50
Ran Season Best 13 27 14
Average Time -30.40 21:14.50 21:44.90
Median Time -34.20 20:48.90 21:23.10
Middle 80% Times -28.76 21:00.59 21:29.35
Top 10% Times -58.28 16:50.47 17:48.75
Top 25% Times -57.41 17:30.90 18:28.31
Top 50% Times -45.70 18:38.60 19:24.29
Bottom 50% Times -14.74 23:35.41 23:50.15
Bottom 25% Times -5.12 25:41.17 25:46.28
Bottom 10% Times -13.17 27:44.41 27:57.58
Average Difference -30.45 -- --
Median Difference -2:08.70 -- --
Middle 80% Difference -28.06 -- --
Top 10% Difference -49.25 -- --
Top 50% Difference -42.38 -- --
Top 25% Difference -56.87 -- --
Top 50% Difference -42.38 -- --
Bottom 50% Difference -18.52 -- --
Bottom 25% Difference -10.95 -- --
Bottom 10% Difference -30.77 -- --

Performances of Common Athletes
Athlete Team Difference This Meet That Meet
Ryan Adams Cuyahoga Valley Christian Academy -1:14.00 15:54.80 17:08.80
Tristan Dahmen Maplewood -1:13.00 16:03.30 17:16.30
Logan Smith Mineral Ridge -1:27.10 16:16.90 17:44.00
Joe Rossetti St. Vincent-St. Mary -1:07.10 16:19.80 17:26.90
Michael Beebe Notre Dame-Cathedral Latin -58.80 16:31.90 17:30.70
Nick Campbell St. Vincent-St. Mary -1:33.30 16:34.20 18:07.50
Derek Morrison Maplewood -31.30 16:49.30 17:20.60
Brian Lief Shaker Heights -1:58.30 16:57.30 18:55.60
Brandon Scribben Jefferson Area -1:21.40 17:02.10 18:23.50
Owen Reeher Badger -52.80 17:02.10 17:54.90
Charlie Woodrum Maplewood -1:52.00 17:08.30 19:00.30
Tim Bizon Brunswick -43.40 17:10.50 17:53.90
Jared Bottger Notre Dame-Cathedral Latin -2:14.10 17:14.70 19:28.80
Dan Car Eastlake North -40.00 17:14.80 17:54.80
Marco Colant St. Vincent-St. Mary -31.30 17:15.20 17:46.50
James Caffrey Shaker Heights -2:09.60 17:20.50 19:30.10
Austin Patrick St. Vincent-St. Mary -1:21.50 17:22.30 18:43.80
Nate Keeney Maplewood -1:36.00 17:24.20 19:00.20
David Natoli McDonald -36.90 17:24.20 18:01.10
Brandon Phillips Gilmour Academy -47.60 17:24.30 18:11.90
Adam Thompson Berkshire -43.40 17:24.40 18:07.80
Patrick Walter St. Vincent-St. Mary -1:57.00 17:26.50 19:23.50
Nathan Schultz Berkshire -1:46.90 17:28.40 19:15.30
Bryce Street McDonald -44.20 17:33.60 18:17.80
Erik Pritschau Perry -57.90 17:38.50 18:36.40
David Pelletier Berkshire -22.30 17:39.90 18:02.20
Marco Mediati McDonald -55.00 17:49.40 18:44.40
Jack Petrecca Eastlake North -43.80 17:50.10 18:33.90
Bryce Patrick St. Vincent-St. Mary -18.10 17:53.20 18:11.30
Dustin Gilbert Perry -16.90 17:53.70 18:10.60
Colin Driggs Gilmour Academy -1:32.60 17:56.30 19:28.90
Danny Fleming Padua Franciscan -1:49.70 17:58.20 19:47.90
Cody Reeher Badger -54.60 18:02.30 18:56.90
John Gudz Trinity -1:50.70 18:04.60 19:55.30
Jordan Roush South Range -1:03.60 18:10.40 19:14.00
Garrett Anderson South Range +11.20 18:22.10 18:10.90
Nate Walker Berkshire -32.10 18:11.50 18:43.60
Eric Grubaugh Perry +41.40 18:54.90 18:13.50
Joseph Kataro United -39.90 18:18.10 18:58.00
Ben Stebelton South Range -24.10 18:22.00 18:46.10
Matt Folkman Notre Dame-Cathedral Latin -1:07.30 18:35.90 19:43.20
Zack Fedyski McDonald -31.30 18:38.20 19:09.50
Athena Welsh St. Thomas Aquinas -1:41.70 18:40.00 20:21.70
Dan Sheppard Trinity -40.70 18:40.60 19:21.30
Rachel Iacofano St. Vincent-St. Mary -42.50 18:44.80 19:27.30
Paul Bogdan Jefferson Area -35.60 18:45.40 19:21.00
Andy Picard Jefferson Area +3:02.30 21:49.60 18:47.30
Vincent Zehentbauer United +39.70 19:33.80 18:54.10
Kevin Cummings Kirtland -2:46.10 18:57.20 21:43.30
Zack Temple Newbury -51.50 19:00.30 19:51.80
Jesse Mihalic Padua Franciscan -26.20 19:01.80 19:28.00
Nick Watson Eastlake North -2:54.20 19:03.10 21:57.30
Jake Gould Streetsboro +23.70 19:35.40 19:11.70
David Plent Notre Dame-Cathedral Latin +17.70 19:35.20 19:17.50
Ryan Seibert Gilmour Academy -58.10 19:21.60 20:19.70
Ben Mayo Padua Franciscan -29.20 19:23.80 19:53.00
Ben Wozniak Notre Dame-Cathedral Latin -1:20.10 19:24.80 20:44.90
Sammy Bockoven Cuyahoga Valley Christian Academy -22.00 19:28.10 19:50.10
Tyler Garman Streetsboro -8.30 19:29.50 19:37.80
Mike Nozak Trinity -2:08.70 19:30.00 21:38.70
Heidi Hoffman McDonald -50.00 19:30.40 20:20.40
Hannah Markel Gilmour Academy -38.90 19:32.90 20:11.80
Luke Habosky Chalker -48.30 19:33.50 20:21.80
Michael Walker St. Vincent-St. Mary +24.10 20:03.30 19:39.20
Cynthia Haas St. Vincent-St. Mary -46.40 19:40.90 20:27.30
Brandon Saraniti Trinity -48.80 19:41.90 20:30.70
Vanessa Pasadyn Brunswick +8.90 19:52.20 19:43.30
Kevin Pryatel Gilmour Academy -1:15.20 19:45.70 21:00.90
Ben Takitch Trinity -2:18.10 19:47.40 22:05.50
Suzanne Koziol Berkshire -1:30.40 19:52.70 21:23.10
Grace Davis St. Vincent-St. Mary -59.00 19:53.40 20:52.40
Seth James Mineral Ridge -3:13.70 19:55.30 23:09.00
Mollie Pierson South Range -33.00 20:05.90 20:38.90
Shea O'brien St. Vincent-St. Mary -30.30 20:07.00 20:37.30
Catherine Dolohanty Gilmour Academy +1:57.80 22:06.90 20:09.10
Nick Meyer Kirtland -45.40 20:09.60 20:55.00
Jenna Scott Brunswick +55.50 21:06.70 20:11.20
Zach Young United +1:16.10 21:27.40 20:11.30
Scott Stanley Garfield -11.40 20:19.50 20:30.90
Katie Pavlick Brunswick +20.30 20:41.30 20:21.00
Melissa Koziol Berkshire -17.40 20:21.60 20:39.00
Hannah Meyer Brunswick -9.70 20:25.50 20:35.20
Christin Dornback Berkshire -21.00 20:27.80 20:48.80
Josh Mansfield Kirtland +20.30 20:49.10 20:28.80
Regina Neugebauer St. Vincent-St. Mary -2:35.20 20:29.00 23:04.20
Brenna Rupe McDonald -1:24.80 20:30.50 21:55.30
Caitlin Whetstone Gilmour Academy -18.30 20:35.70 20:54.00
Katelyn Luther Berkshire -1:04.00 20:43.80 21:47.80
Madelyn Kimpel South Range +1:31.80 22:17.20 20:45.40
Becca Ogorzaly Brunswick -45.40 20:46.80 21:32.20
Bobbi Oakes McDonald +15.90 21:04.50 20:48.60
Mariah Coulter Garfield -47.20 20:48.90 21:36.10
Rachel Perry McDonald -26.90 20:49.30 21:16.20
Carlie Watt Lakeside -1:07.90 20:49.80 21:57.70
Andrew Norton Trinity -47.30 21:08.90 21:56.20
Domenique Hall Girard -56.10 21:09.90 22:06.00
Ryan Crump Mineral Ridge -20.80 21:11.70 21:32.50
Nicole Wright Cuyahoga Valley Christian Academy -1:25.70 21:18.10 22:43.80
Jane Bozsik St. Vincent-St. Mary -2:22.90 21:21.80 23:44.70
Hannah Hall East Palestine +30.50 21:53.00 21:22.50
Miranda Hughes Southeast +1:04.50 22:27.00 21:22.50
Yasmeen Elnobani McDonald +3.10 21:28.50 21:25.40
Mackenzie Clinger Notre Dame-Cathedral Latin +50.80 22:19.90 21:29.10
Lauren Marconi Saint Joseph Academy -1:32.00 21:31.70 23:03.70
Mark Stein Ursuline -38.10 21:33.20 22:11.30
Rachel Graf Beaumont School +1:49.30 23:26.70 21:37.40
Johannah Stefanek Garfield +1:39.40 23:19.80 21:40.40
Jamie Zickes Padua Franciscan +14.90 22:03.00 21:48.10
Courtney Williams Girard -1:12.80 21:48.20 23:01.00
Madison Dunn Southeast -2:21.00 21:49.30 24:10.30
Meghan Westerh Streetsboro -14.80 21:51.40 22:06.20
Natalie Gamble United +1:34.50 23:30.20 21:55.70
Christopher O'leary Trinity -2:43.30 22:02.30 24:45.60
Courtney Rulison Gilmour Academy +16.60 22:19.70 22:03.10
Sara Chmielewski Padua Franciscan -1:01.70 22:07.00 23:08.70
Hannah Shaffer Salem -36.70 22:15.30 22:52.00
Ilana Sadholz Shaker Heights +55.10 23:15.00 22:19.90
Gwen Losasso Berkshire -1:49.30 22:20.10 24:09.40
Erin Stewart Notre Dame-Cathedral Latin -25.60 22:22.40 22:48.00
Nathan Moore Jefferson Area -1:42.20 22:25.20 24:07.40
Audrianna Farris Saint Joseph Academy +1.80 22:28.40 22:26.60
Tatum Flesch Mineral Ridge -9.20 22:27.50 22:36.70
Wayne Guy East Palestine -1:32.80 22:30.80 24:03.60
Madeline Dew Perry -24.50 22:32.00 22:56.50
Justin Asente Girard -1:21.00 22:34.90 23:55.90
Clare Fibbi Saint Joseph Academy -5.80 22:37.60 22:43.40
Santina D'agostino Beaumont School -14.60 22:45.80 23:00.40
Sienna Drillien Cuyahoga Valley Christian Academy +20.70 23:15.80 22:55.10
Lauren Herubin South Range +24.90 23:25.20 23:00.30
Kelsey Mislai Badger -2:08.20 23:03.60 25:11.80
Kirsten Adams South Range +2:55.10 26:19.80 23:24.70
Pamela Beedle McDonald -49.10 23:25.00 24:14.10
Katelyn Bevilacqua Badger +40.60 24:06.80 23:26.20
Maeve Scully Shaker Heights +44.60 24:16.30 23:31.70
Katherine Stief Kirtland +34.30 24:09.40 23:35.10
Molly King Cuyahoga Valley Christian Academy +2:54.20 26:30.40 23:36.20
Jake Knowlton Girard -2:48.70 23:44.80 26:33.50
Alexis Zahuranec Notre Dame-Cathedral Latin -46.40 23:46.10 24:32.50
Christine Walsh Kirtland -4.10 23:50.20 23:54.30
Brandy Watkins Maplewood +1:07.20 25:06.40 23:59.20
Elizabeth Young Maplewood +16.80 24:21.40 24:04.60
Carrie Adams South Range +46.90 24:57.30 24:10.40
Ellie Ragan Mineral Ridge -25.80 24:12.00 24:37.80
Sarah Foley Trinity +20.40 24:33.00 24:12.60
Lindsey Jones Garfield +1:08.40 25:21.00 24:12.60
Emma Greathouse Trinity -32.70 24:14.70 24:47.40
Abby Licate Lakeside -23.80 24:20.40 24:44.20
Jessica Moore Garfield +32.70 24:56.30 24:23.60
Christa Oxley Conneaut +1:55.40 26:19.50 24:24.10
Alexis Millard Conneaut +52.10 25:20.10 24:28.00
Elizabeth Brett Gilmour Academy -1:29.60 24:30.00 25:59.60
Jackie Kenreich Girard -15.70 24:37.00 24:52.70
Hannah Trent Garfield +2:00.50 26:39.80 24:39.30
Mackenzie Hughes Southeast +1:30.70 26:28.10 24:57.40
Allie Sakacs South Range +2:41.50 27:45.00 25:03.50
Maggie Kinkopf Newbury -3:15.00 25:03.80 28:18.80
Christie Kaminchak Padua Franciscan -1:54.30 25:05.30 26:59.60
Colin Edgley St. Vincent-St. Mary -3:26.80 25:16.10 28:42.90
Lacey Shasteen Salem -1:26.30 25:22.70 26:49.00
Angelique Augustine St. Thomas Aquinas -3:35.90 25:46.70 29:22.60
Shannon Perkins Jefferson Area +44.70 26:46.70 26:02.00
Tori Ward East Palestine +56.80 27:19.00 26:22.20
Brooke Mullins Lordstown +3:27.70 30:12.00 26:44.30
Bridget Stark Kirtland +1:18.70 28:11.60 26:52.90
Angelica Suma Trinity +1:16.70 28:50.10 27:33.40
Olivia Wince South Range -1:57.00 28:22.80 30:19.80
Maddie Sanoba Trinity +1.20 29:38.30 29:37.10
Caroline Popa St. Thomas Aquinas -1:46.10 29:42.70 31:28.80
Jill Stephens St. Thomas Aquinas -1:00.80 31:19.70 32:20.50